TimeCDT,TemperatureF,Dew PointF,Humidity,Sea Level PressureIn,VisibilityMPH,Wind Direction,Wind SpeedMPH,Gust SpeedMPH,PrecipitationIn,Events,Conditions,WindDirDegrees,DateUTC
12:13 AM,33.8,15.8,48,29.81,10.0,SSW,3.5,-,N/A,,Clear,200,2012-10-08 05:13:00
12:34 AM,33.8,15.8,48,29.80,10.0,SSW,5.8,-,N/A,,Clear,210,2012-10-08 05:34:00
12:54 AM,33.8,15.8,48,29.80,10.0,SW,4.6,-,N/A,,Clear,220,2012-10-08 05:54:00
1:13 AM,33.8,15.8,48,29.80,10.0,SW,4.6,-,N/A,,Clear,220,2012-10-08 06:13:00
1:34 AM,33.8,15.8,48,29.79,10.0,SW,5.8,-,N/A,,Clear,220,2012-10-08 06:34:00
1:54 AM,35.6,17.6,48,29.79,10.0,SW,5.8,-,N/A,,Clear,220,2012-10-08 06:54:00
2:13 AM,35.6,17.6,48,29.79,10.0,SW,5.8,-,N/A,,Clear,220,2012-10-08 07:13:00
2:34 AM,37.4,17.6,45,29.78,10.0,SW,6.9,-,N/A,,Mostly Cloudy,220,2012-10-08 07:34:00
2:54 AM,39.2,19.4,45,29.77,10.0,SSW,5.8,-,N/A,,Mostly Cloudy,210,2012-10-08 07:54:00
3:13 AM,39.2,21.2,49,29.77,10.0,SSW,6.9,-,N/A,,Scattered Clouds,210,2012-10-08 08:13:00
3:34 AM,42.8,21.2,42,29.76,10.0,SSW,4.6,-,N/A,,Overcast,200,2012-10-08 08:34:00
3:54 AM,42.8,21.2,42,29.75,10.0,SSW,5.8,-,N/A,,Overcast,210,2012-10-08 08:54:00
4:13 AM,44.6,21.2,39,29.74,10.0,SW,4.6,-,N/A,,Overcast,220,2012-10-08 09:13:00
4:34 AM,46.4,21.2,37,29.74,10.0,SW,6.9,-,N/A,,Mostly Cloudy,220,2012-10-08 09:34:00
4:54 AM,46.4,23.0,40,29.74,10.0,SW,5.8,-,N/A,,Scattered Clouds,230,2012-10-08 09:54:00
5:13 AM,46.4,21.2,37,29.73,10.0,SW,9.2,-,N/A,,Mostly Cloudy,220,2012-10-08 10:13:00
5:34 AM,46.4,23.0,40,29.72,10.0,SW,9.2,-,N/A,,Scattered Clouds,220,2012-10-08 10:34:00
5:54 AM,46.4,23.0,40,29.71,10.0,SSW,9.2,-,N/A,,Mostly Cloudy,210,2012-10-08 10:54:00
6:13 AM,46.4,24.8,43,29.71,10.0,SSW,8.1,-,N/A,,Scattered Clouds,210,2012-10-08 11:13:00
6:34 AM,46.4,24.8,43,29.69,10.0,SSW,8.1,-,N/A,,Clear,210,2012-10-08 11:34:00
6:54 AM,46.4,24.8,43,29.69,10.0,SSW,9.2,-,N/A,,Clear,210,2012-10-08 11:54:00
7:13 AM,46.4,24.8,43,29.68,10.0,SSW,9.2,-,N/A,,Clear,210,2012-10-08 12:13:00
7:34 AM,46.4,24.8,43,29.68,10.0,SW,11.5,-,N/A,,Scattered Clouds,220,2012-10-08 12:34:00
7:54 AM,46.4,24.8,43,29.68,10.0,SSW,9.2,-,N/A,,Overcast,210,2012-10-08 12:54:00
8:13 AM,48.2,24.8,40,29.67,10.0,SSW,11.5,-,N/A,,Mostly Cloudy,210,2012-10-08 13:13:00
8:34 AM,48.2,24.8,40,29.66,10.0,SSW,9.2,-,N/A,,Scattered Clouds,200,2012-10-08 13:34:00
8:53 AM,48.2,24.8,40,29.66,10.0,SSW,10.4,-,N/A,,Mostly Cloudy,200,2012-10-08 13:53:00
9:14 AM,48.2,24.8,40,29.65,10.0,SSW,9.2,-,N/A,,Scattered Clouds,200,2012-10-08 14:14:00
9:34 AM,50.0,24.8,37,29.64,10.0,SSW,9.2,-,N/A,,Mostly Cloudy,210,2012-10-08 14:34:00
9:53 AM,51.8,26.6,38,29.64,10.0,SSW,8.1,-,N/A,Rain,Light Rain,210,2012-10-08 14:53:00
10:14 AM,51.8,24.8,35,29.63,10.0,SSW,11.5,-,N/A,,Mostly Cloudy,210,2012-10-08 15:14:00
10:33 AM,53.6,26.6,35,29.61,10.0,SSW,11.5,-,N/A,,Mostly Cloudy,210,2012-10-08 15:33:00
10:54 AM,55.4,26.6,33,29.59,10.0,SSW,13.8,-,N/A,,Scattered Clouds,200,2012-10-08 15:54:00
11:14 AM,57.2,26.6,31,29.59,10.0,SW,13.8,-,N/A,,Scattered Clouds,220,2012-10-08 16:14:00
11:33 AM,59.0,26.6,29,29.59,10.0,WSW,11.5,17.3,N/A,,Scattered Clouds,250,2012-10-08 16:33:00
11:54 AM,60.8,26.6,27,29.59,10.0,WSW,19.6,25.3,N/A,,Scattered Clouds,250,2012-10-08 16:54:00
12:14 PM,59.0,26.6,29,29.59,10.0,WSW,17.3,24.2,N/A,,Scattered Clouds,250,2012-10-08 17:14:00
12:54 PM,62.6,28.4,27,29.58,10.0,West,25.3,32.2,N/A,,Scattered Clouds,270,2012-10-08 17:54:00
1:14 PM,62.6,28.4,27,29.59,10.0,West,25.3,32.2,N/A,,Mostly Cloudy,270,2012-10-08 18:14:00
1:33 PM,64.4,30.2,28,29.58,10.0,West,21.9,31.1,N/A,,Mostly Cloudy,260,2012-10-08 18:33:00
1:54 PM,64.4,33.8,32,29.58,10.0,West,19.6,28.8,N/A,,Scattered Clouds,280,2012-10-08 18:54:00
2:13 PM,66.2,35.6,32,29.58,10.0,WNW,21.9,29.9,N/A,,Scattered Clouds,290,2012-10-08 19:13:00
2:34 PM,64.4,37.4,37,29.59,10.0,West,23.0,33.4,N/A,,Scattered Clouds,280,2012-10-08 19:34:00
2:54 PM,64.4,37.4,37,29.60,10.0,NW,24.2,32.2,N/A,,Scattered Clouds,310,2012-10-08 19:54:00
3:13 PM,64.4,37.4,37,29.61,10.0,WNW,24.2,34.5,N/A,,Scattered Clouds,300,2012-10-08 20:13:00
3:34 PM,64.4,35.6,34,29.61,10.0,WNW,26.5,34.5,N/A,,Clear,290,2012-10-08 20:34:00
3:54 PM,64.4,35.6,34,29.62,10.0,WNW,27.6,33.4,N/A,,Scattered Clouds,290,2012-10-08 20:54:00
4:13 PM,62.6,35.6,37,29.63,10.0,WNW,26.5,33.4,N/A,,Scattered Clouds,290,2012-10-08 21:13:00
4:34 PM,62.6,35.6,37,29.63,10.0,WNW,21.9,34.5,N/A,,Scattered Clouds,300,2012-10-08 21:34:00
4:54 PM,62.6,35.6,37,29.64,10.0,NW,19.6,31.1,N/A,,Scattered Clouds,320,2012-10-08 21:54:00
5:13 PM,60.8,35.6,39,29.66,10.0,NW,23.0,29.9,N/A,,Scattered Clouds,310,2012-10-08 22:13:00
5:34 PM,60.8,35.6,39,29.67,10.0,NW,15.0,26.5,N/A,,Mostly Cloudy,310,2012-10-08 22:34:00
5:54 PM,59.0,35.6,42,29.68,10.0,NW,20.7,26.5,N/A,,Mostly Cloudy,310,2012-10-08 22:54:00
6:13 PM,57.2,35.6,44,29.69,10.0,NW,18.4,-,N/A,,Scattered Clouds,320,2012-10-08 23:13:00
6:34 PM,55.4,35.6,47,29.70,10.0,NW,17.3,-,N/A,,Scattered Clouds,320,2012-10-08 23:34:00
7:14 PM,53.6,33.8,47,29.72,10.0,WNW,8.1,-,N/A,,Clear,300,2012-10-09 00:14:00
7:34 PM,51.8,33.8,50,29.72,10.0,WNW,8.1,-,N/A,,Clear,290,2012-10-09 00:34:00
7:53 PM,48.2,32.0,54,29.73,10.0,West,6.9,-,N/A,,Clear,280,2012-10-09 00:53:00
8:14 PM,48.2,32.0,54,29.73,10.0,West,6.9,-,N/A,,Clear,270,2012-10-09 01:14:00
8:34 PM,46.4,32.0,57,29.73,10.0,West,4.6,-,N/A,,Clear,260,2012-10-09 01:34:00
8:53 PM,48.2,33.8,58,29.73,10.0,WSW,3.5,-,N/A,,Scattered Clouds,250,2012-10-09 01:53:00
9:14 PM,48.2,33.8,58,29.73,10.0,WSW,4.6,-,N/A,,Mostly Cloudy,240,2012-10-09 02:14:00
9:33 PM,51.8,33.8,50,29.73,10.0,West,6.9,-,N/A,,Scattered Clouds,260,2012-10-09 02:33:00
9:54 PM,50.0,33.8,54,29.74,10.0,West,8.1,-,N/A,,Mostly Cloudy,260,2012-10-09 02:54:00
10:14 PM,50.0,33.8,54,29.74,10.0,West,6.9,-,N/A,,Overcast,270,2012-10-09 03:14:00
10:54 PM,50.0,33.8,54,29.75,10.0,West,6.9,-,N/A,,Overcast,270,2012-10-09 03:54:00
11:33 PM,50.0,33.8,54,29.75,10.0,West,5.8,-,N/A,,Mostly Cloudy,270,2012-10-09 04:33:00
11:54 PM,48.2,33.8,58,29.75,10.0,West,5.8,-,N/A,,Scattered Clouds,260,2012-10-09 04:54:00